Location: Ashtead
(51.3000°N, 0.3000°W)
Time: 13:14:19
(UTC+00:00)

ATLAS 2AS CENTAUR R/B - Pass Details

Date: 26 September 2023
Orbit: 998 x 1213 km, 63.7° (Epoch: 17 November)

Event Time Altitude Azimuth Distance (km) Brightness Sun altitude
Exits shadow 05:20:50 - 256° (WSW) 3,442 4.7 -5.9°
Reaches altitude 10° 05:21:51 10° 259° (WSW) 3,105 4.5 -5.7°
Maximum altitude 05:28:57 46° 331° (NNW) 1,509 3.4 -4.6°
Drops below altitude 10° 05:35:45 10° 44° (NE) 2,972 5.8 -3.6°
Sets 05:38:31 0° 50° (NE) 3,899 6.6 -3.1°
